Location: Le Castellard
(44.1862°N, 6.1301°E)
Time: 08:24:14
(UTC+00:00)

ALOS - Pass Details

Date: 18 January 2020
Orbit: 683 x 686 km, 97.8° (Epoch: 27 February)

Event Time Altitude Azimuth Distance (km) Brightness Sun altitude
Rises 04:28:51 0° 18° (NNE) 3,060 5.8 -27.8°
Reaches altitude 10° 04:31:11 10° 24° (NNE) 2,139 5.0 -27.4°
Maximum altitude 04:35:42 47° 99° (E) 902 3.2 -26.6°
Drops below altitude 10° 04:40:11 10° 173° (S) 2,121 4.9 -25.8°
Sets 04:42:29 0° 179° (S) 3,031 5.7 -25.4°
